Weather History for KGMU - January, 2014

Change the Weather History Date:

Monday, January 13, 2014

  Actual Average Record
Temperature  
Mean Temperature 47 °F -  
Max Temperature 57 °F 50 °F 72 °F (2000)
Min Temperature 37 °F 32 °F 23 °F (2011)
Degree Days  
Heating Degree Days 18    
Moisture  
Dew Point 36 °F    
Average Humidity 69    
Maximum Humidity 93    
Minimum Humidity 39    
Precipitation  
Precipitation 0.16 in - - ()
Sea Level Pressure  
Sea Level Pressure 30.07 in    
Wind  
Wind Speed 5 mph (SW)    
Max Wind Speed 14 mph    
Max Gust Speed -    
Visibility 9 miles    
Events Rain    
Averages and records for this station are not official NWS values.
T = Trace of Precipitation, MM = Missing Value Source: NWS Daily Summary

Daily Weather History Graph

Daily Weather History Graph

Search for Another Location

Airport or City:

Trip Planner

Search our weather history database for the weather conditions in past years. The results will help you decide how hot, cold, wet, or windy it might be!

Date:

Astronomy

Jan. 13, 2014 Rise Set
Actual Time 7:36 AM EST 5:39 PM EST
Civil Twilight 7:09 AM EST 6:07 PM EST
Nautical Twilight 6:38 AM EST 6:38 PM EST
Astronomical Twilight 6:07 AM EST 7:08 PM EST
Moon 3:52 PM EST (1/13) 5:25 AM EST (1/13)
Length of Visible Light 10h 57m
Length of Day
10h 02m
Waxing Gibbous, 95% of the Moon is Illuminated
Jan 13
Waxing Gibbous
Jan 15
Full
Jan 24
Last Quarter
Jan 30
New
Feb 6
First Quarter

Hourly Weather History & Observations

Time (EST) Temp. Windchill Dew Point Humidity Pressure Visibility Wind Dir Wind Speed Gust Speed Precip Events Conditions
12:53 AM 39.0 °F 36.8 °F 32.0 °F 76% 30.16 in 10.0 mi SW 3.5 mph - N/A   Clear
1:53 AM 41.0 °F - 32.0 °F 70% 30.15 in 10.0 mi Calm Calm - N/A   Clear
2:53 AM 37.9 °F - 30.9 °F 76% 30.16 in 10.0 mi Calm Calm - N/A   Clear
3:53 AM 39.0 °F 34.8 °F 32.0 °F 76% 30.14 in 10.0 mi SW 5.8 mph - N/A   Clear
4:53 AM 39.0 °F 34.0 °F 32.0 °F 76% 30.15 in 10.0 mi SW 6.9 mph - N/A   Clear
5:53 AM 37.9 °F 32.7 °F 32.0 °F 79% 30.14 in 10.0 mi SW 6.9 mph - N/A   Clear
6:53 AM 37.9 °F 35.5 °F 30.9 °F 76% 30.13 in 10.0 mi SW 3.5 mph - N/A   Clear
7:53 AM 37.9 °F 33.5 °F 32.0 °F 79% 30.12 in 10.0 mi SSW 5.8 mph - N/A   Clear
8:53 AM 42.1 °F 38.4 °F 34.0 °F 73% 30.14 in 10.0 mi SSW 5.8 mph - N/A   Clear
9:53 AM 46.0 °F 41.9 °F 34.0 °F 63% 30.15 in 10.0 mi SW 8.1 mph - N/A   Clear
10:53 AM 48.0 °F - 34.0 °F 58% 30.15 in 10.0 mi SW 10.4 mph - N/A   Clear
11:53 AM 52.0 °F - 35.1 °F 53% 30.11 in 10.0 mi SW 9.2 mph - N/A   Clear
12:53 PM 55.9 °F - 33.1 °F 42% 30.06 in 10.0 mi SW 13.8 mph - N/A   Clear
1:53 PM 57.0 °F - 32.0 °F 39% 30.03 in 10.0 mi SW 12.7 mph - N/A   Clear
2:53 PM 55.9 °F - 32.0 °F 40% 30.02 in 10.0 mi SW 9.2 mph - N/A   Clear
3:53 PM 55.9 °F - 33.1 °F 42% 30.02 in 10.0 mi SSW 10.4 mph - N/A   Clear
4:53 PM 55.0 °F - 33.1 °F 43% 30.01 in 10.0 mi SSW 5.8 mph - N/A   Clear
5:53 PM 53.1 °F - 34.0 °F 48% 30.00 in 10.0 mi SW 3.5 mph - N/A   Scattered Clouds
6:53 PM 53.1 °F - 36.0 °F 52% 30.01 in 10.0 mi SSW 3.5 mph - 0.00 in Rain Light Rain
7:53 PM 48.9 °F - 42.1 °F 77% 30.01 in 8.0 mi Calm Calm - 0.04 in Rain Rain
8:53 PM 46.9 °F - 43.0 °F 86% 30.02 in 9.0 mi WSW 3.5 mph - 0.06 in Rain Light Rain
9:53 PM 46.0 °F - 44.1 °F 93% 30.01 in 9.0 mi Calm Calm - 0.05 in Rain Light Rain
10:53 PM 46.0 °F 44.8 °F 44.1 °F 93% 29.99 in 7.0 mi NW 3.5 mph - 0.00 in Rain Light Rain
11:08 PM 46.4 °F 44.3 °F 44.6 °F 93% 29.97 in 4.0 mi NW 4.6 mph - 0.01 in Rain Light Rain
11:41 PM 46.4 °F 44.3 °F 44.6 °F 93% 29.94 in 7.0 mi NW 4.6 mph - 0.01 in Rain Light Rain
11:53 PM 46.0 °F 43.9 °F 44.1 °F 93% 29.93 in 8.0 mi NNW 4.6 mph - 0.01 in   Overcast